Time,TemperatureF,DewpointF,PressureIn,WindDirection,WindDirectionDegrees,WindSpeedMPH,WindSpeedGustMPH,Humidity,HourlyPrecipIn,Conditions,Clouds,dailyrainin,SoftwareType,DateUTC
2013-02-13 00:00:00,32.2,26.4,29.63,SW,227,5.0,5.0,79,0.00,,,0.00,Wunderground v.1.15,2013-02-13 05:00:00,
2013-02-13 00:05:00,32.2,26.4,29.63,WSW,250,4.0,8.0,79,0.00,,,0.00,Wunderground v.1.15,2013-02-13 05:05:00,
2013-02-13 00:14:00,32.2,26.4,29.63,SW,236,4.0,8.0,79,0.00,,,0.00,Wunderground v.1.15,2013-02-13 05:14:00,
2013-02-13 00:20:00,32.2,26.1,29.63,SW,221,4.0,8.0,78,0.00,,,0.00,Wunderground v.1.15,2013-02-13 05:20:00,
2013-02-13 00:25:00,32.3,26.2,29.63,SW,229,4.0,8.0,78,0.00,,,0.00,Wunderground v.1.15,2013-02-13 05:25:00,
2013-02-13 00:35:00,32.1,26.3,29.63,SW,219,2.0,8.0,79,0.00,,,0.00,Wunderground v.1.15,2013-02-13 05:35:00,
2013-02-13 00:45:00,32.2,26.4,29.63,SW,222,4.0,8.0,79,0.00,,,0.00,Wunderground v.1.15,2013-02-13 05:45:00,
2013-02-13 00:50:00,32.2,26.4,29.63,SW,228,5.0,5.0,79,0.00,,,0.00,Wunderground v.1.15,2013-02-13 05:50:00,
2013-02-13 00:55:00,32.1,26.3,29.63,SW,219,5.0,8.0,79,0.00,,,0.00,Wunderground v.1.15,2013-02-13 05:55:00,
2013-02-13 01:05:00,32.1,26.6,29.63,SW,217,5.0,8.0,80,0.00,,,0.00,Wunderground v.1.15,2013-02-13 06:05:00,
2013-02-13 01:15:00,32.1,26.6,29.63,SW,216,3.0,8.0,80,0.00,,,0.00,Wunderground v.1.15,2013-02-13 06:15:00,
2013-02-13 01:20:00,32.1,26.9,29.63,SW,220,3.0,8.0,81,0.00,,,0.00,Wunderground v.1.15,2013-02-13 06:20:00,
2013-02-13 01:30:00,32.0,27.1,29.63,SW,219,3.0,8.0,82,0.00,,,0.00,Wunderground v.1.15,2013-02-13 06:30:00,
2013-02-13 01:40:00,31.9,27.0,29.62,SW,227,3.0,8.0,82,0.00,,,0.00,Wunderground v.1.15,2013-02-13 06:40:00,
2013-02-13 01:45:00,31.9,27.0,29.63,SW,225,3.0,8.0,82,0.00,,,0.00,Wunderground v.1.15,2013-02-13 06:45:00,
2013-02-13 01:54:00,32.0,26.8,29.62,SW,215,3.0,4.0,81,0.00,,,0.00,Wunderground v.1.15,2013-02-13 06:54:00,
2013-02-13 02:00:00,32.0,26.8,29.62,SW,219,3.0,8.0,81,0.00,,,0.00,Wunderground v.1.15,2013-02-13 07:00:00,
2013-02-13 02:05:00,32.0,26.8,29.62,SSW,213,3.0,8.0,81,0.00,,,0.00,Wunderground v.1.15,2013-02-13 07:05:00,
2013-02-13 02:15:00,31.9,26.7,29.62,SW,221,3.0,4.0,81,0.00,,,0.00,Wunderground v.1.15,2013-02-13 07:15:00,
2013-02-13 02:25:00,32.0,26.8,29.62,SW,218,4.0,7.0,81,0.00,,,0.00,Wunderground v.1.15,2013-02-13 07:25:00,
2013-02-13 02:30:00,31.9,26.7,29.62,SW,227,3.0,3.0,81,0.00,,,0.00,Wunderground v.1.15,2013-02-13 07:30:00,
2013-02-13 02:35:00,31.9,26.4,29.62,SW,227,2.0,7.0,80,0.00,,,0.00,Wunderground v.1.15,2013-02-13 07:35:00,
2013-02-13 02:45:00,31.9,26.7,29.62,SW,227,1.0,7.0,81,0.00,,,0.00,Wunderground v.1.15,2013-02-13 07:45:00,
2013-02-13 02:50:00,31.8,26.6,29.62,SW,227,0.0,7.0,81,0.00,,,0.00,Wunderground v.1.15,2013-02-13 07:50:00,
2013-02-13 03:00:00,31.7,26.2,29.62,SW,227,1.0,7.0,80,0.00,,,0.00,Wunderground v.1.15,2013-02-13 08:00:00,
2013-02-13 03:05:00,31.8,26.0,29.62,SW,227,2.0,7.0,79,0.00,,,0.00,Wunderground v.1.15,2013-02-13 08:05:00,
2013-02-13 03:15:00,31.9,25.8,29.62,SW,219,2.0,4.0,78,0.00,,,0.00,Wunderground v.1.15,2013-02-13 08:15:00,
2013-02-13 03:20:00,31.9,25.8,29.62,SW,235,3.0,3.0,78,0.00,,,0.00,Wunderground v.1.15,2013-02-13 08:20:00,